sat.trackr.live / text

‹ back to catalog

STARLINK-32016

NORAD 60096 · 2024-117F

PAYLOAD ACTIVE UNKNOWN

§ Identity

Operator
Country
US
Launch date
2024-06-23
Launch site
AFETR
Launch vehicle
Mass (kg)
RCS (m²)

Purposes: comms

External: N2YO · Heavens-Above · Gunter

§ Orbital elements

Epoch: 2026-09-21T03:20:17.699136Z

Period
93.85 min
Inclination
53.1618°
Eccentricity
0.0001717
Mean motion
15.34393131 rev/d
Perigee alt
461.5 km
Apogee alt
463.9 km
Semi-major
6,840.9 km
B*
4.9501e-6
RAAN
206.9454°
Arg perigee
79.2917°
Mean anomaly
280.8279°
Rev number
12,684

§ Raw data

STARLINK-320161 60096U 24117F   26264.13909374 -.00000209  00000+0  49501-5 0  99972 60096  53.1618 206.9454 0001717  79.2917 280.8279 15.34393131126848

JSON: /api/v1/satellites/60096 · /tle

For live sub-satellite position, see the globe view (requires WebGL).

§ Visibility from observer

Set your observer location to see the next 7 days of passes ≥ 10°. The values pass through the URL so the page stays shareable.

No JS? Fill the form by hand. The geolocation button needs JavaScript.